Weather History for New Orleans, LA

Change the Weather History Date:

Friday, March 8, 2013

  Actual Average Record
Temperature  
Mean Temperature 56 °F -  
Max Temperature 71 °F 69 °F 84 °F (1980)
Min Temperature 42 °F 48 °F 27 °F (1971)
Degree Days  
Heating Degree Days 8    
Growing Degree Days 6 (Base 50)    
Moisture  
Dew Point 43 °F    
Average Humidity 63    
Maximum Humidity 93    
Minimum Humidity 33    
Precipitation  
Precipitation 0.00 in - - ()
Sea Level Pressure  
Sea Level Pressure 30.25 in    
Wind  
Wind Speed 3 mph (ENE)    
Max Wind Speed 9 mph    
Max Gust Speed 18 mph    
Visibility 9 miles    
Events      
Averages and records for this station are not official NWS values.
T = Trace of Precipitation, MM = Missing Value Source: NWS Daily Summary

Daily Weather History Graph

Daily Weather History Graph

Search for Another Location

Airport:

Trip Planner

Search our weather history database for the weather conditions in past years. The results will help you decide how hot, cold, wet, or windy it might be!

Date:

Astronomy

Mar. 08, 2013 Rise Set
Actual Time 6:18 AM CST 6:05 PM CST
Civil Twilight 5:54 AM CST 6:28 PM CST
Nautical Twilight 5:27 AM CST 6:56 PM CST
Astronomical Twilight 4:59 AM CST 7:24 PM CST
Moon 3:51 AM CST (3/8) 3:10 PM CST (3/8)
Length of Visible Light 12h 34m
Length of Day
11h 46m
Waning Crescent, 11% of the Moon is Illuminated
Mar 8
Waning Crescent
Mar 11
New
Mar 19
First Quarter
Mar 27
Full
Apr 2
Last Quarter

Hourly Weather History & Observations

Time (CST) Temp. Windchill Dew Point Humidity Pressure Visibility Wind Dir Wind Speed Gust Speed Precip Events Conditions
12:53 AM 46.0 °F - 42.1 °F 86% 30.26 in 9.0 mi Calm Calm - N/A   Clear
1:53 AM 45.0 °F - 41.0 °F 86% 30.26 in 9.0 mi Calm Calm - N/A   Clear
2:53 AM 45.0 °F - 41.0 °F 86% 30.25 in 9.0 mi Calm Calm - N/A   Clear
3:53 AM 45.0 °F 43.5 °F 41.0 °F 86% 30.25 in 9.0 mi NE 3.5 mph - N/A   Clear
4:53 AM 43.0 °F - 39.9 °F 89% 30.26 in 8.0 mi Calm Calm - N/A   Partly Cloudy
5:53 AM 45.0 °F - 41.0 °F 86% 30.27 in 7.0 mi Calm Calm - N/A   Partly Cloudy
6:53 AM 46.0 °F 43.9 °F 44.1 °F 93% 30.29 in 8.0 mi NE 4.6 mph - N/A   Mostly Cloudy
7:53 AM 54.0 °F - 48.9 °F 83% 30.31 in 9.0 mi NE 8.1 mph - N/A   Mostly Cloudy
8:53 AM 57.0 °F - 46.9 °F 69% 30.32 in 10.0 mi NE 9.2 mph - N/A   Mostly Cloudy
9:53 AM 59.0 °F - 43.0 °F 55% 30.31 in 10.0 mi East 5.8 mph - N/A   Mostly Cloudy
10:53 AM 63.0 °F - 42.1 °F 46% 30.32 in 10.0 mi NE 6.9 mph - N/A   Mostly Cloudy
11:53 AM 64.9 °F - 46.0 °F 50% 30.31 in 10.0 mi NE 5.8 mph 18.4 mph N/A   Mostly Cloudy
12:53 PM 66.0 °F - 44.1 °F 45% 30.27 in 9.0 mi NNE 9.2 mph - N/A   Mostly Cloudy
1:53 PM 68.0 °F - 41.0 °F 37% 30.25 in 10.0 mi NE 8.1 mph - N/A   Scattered Clouds
2:53 PM 70.0 °F - 39.9 °F 33% 30.23 in 10.0 mi North 5.8 mph - N/A   Mostly Cloudy
3:53 PM 68.0 °F - 39.9 °F 36% 30.23 in 10.0 mi North 3.5 mph - N/A   Mostly Cloudy
4:53 PM 64.9 °F - 44.1 °F 47% 30.22 in 7.0 mi South 6.9 mph - N/A   Overcast
5:53 PM 62.1 °F - 45.0 °F 53% 30.20 in 8.0 mi South 5.8 mph - N/A   Overcast
6:53 PM 61.0 °F - 43.0 °F 52% 30.20 in 10.0 mi SSE 5.8 mph - N/A   Mostly Cloudy
7:53 PM 60.1 °F - 39.9 °F 47% 30.21 in 10.0 mi SE 3.5 mph - N/A   Overcast
8:53 PM 57.0 °F - 42.1 °F 57% 30.23 in 10.0 mi South 4.6 mph - N/A   Mostly Cloudy
9:16 PM 55.4 °F - 41.0 °F 58% 30.23 in 10.0 mi SSW 4.6 mph - N/A   Partly Cloudy
9:53 PM 55.0 °F - 44.1 °F 67% 30.24 in 9.0 mi South 3.5 mph - N/A   Scattered Clouds
10:53 PM 55.9 °F - 46.0 °F 69% 30.22 in 9.0 mi Calm Calm - N/A   Scattered Clouds
11:53 PM 54.0 °F - 46.0 °F 75% 30.21 in 8.0 mi Calm Calm - N/A   Mostly Cloudy